Home > Weather > Delémont > Past weeks

Flag for Switzerland Weather for the Past 2 Weeks in Delémont, Jura, Switzerland

Now
38 °F

Chilly.


Feels Like: 38 °F
Forecast: 33 / 46 °F
Wind: 2 mph from West

Location: Grenchen

Current Time: Feb 6, 2016 at 7:54:51 PM

Latest Report: Feb 6, 2016 at 7:00 PM


Visibility: N/A

Pressure: 29.97 "Hg

Humidity: 99%

Dew point: 38 °F

Location of DelémontLocation

Historic Weather in Delémont — Graph

°F

Delémont Temperature Yesterday

Maximum temperature yesterday: 51 °F (at 4:00 PM)
Minimum temperature yesterday: 35 °F (at 11:00 PM)
Average temperature yesterday: 43 °F

High & Low Weather Summary for the Past Weeks

 TemperatureHumidityPressure
High57 °F (Feb 1, 1:00 PM)100% (Jan 24, 3:00 PM)30.71 "Hg (Jan 24, 3:00 PM)
Low26 °F (Jan 30, 6:00 AM)49% (Jan 30, 3:00 PM)29.98 "Hg (Feb 6, 6:00 PM)
Average40 °F91%30.40 "Hg
* Reported Jan 22 6:00 PM — Feb 6 6:00 PM, Delémont, Weather by CustomWeather, © 2016

Note: Actual official high and low records may vary slightly from our data, if they occured in-between our weather recording intervals... More about our weather records

Advertising

Delémont Weather History for the Previous 24 Hours

 ConditionsComfort  
Time TempWeatherWind HumidityBarometerVisibility
6:00 PM
Sat, Feb 6
41 °FQuite cool.3 mph97%29.98 "HgN/A
5:00 PM42 °FQuite cool.5 mph94%30.01 "HgN/A
4:00 PM45 °FCool.5 mph84%30.03 "HgN/A
3:00 PM44 °FQuite cool.7 mph97%30.08 "HgN/A
2:00 PM41 °FQuite cool.5 mph97%30.12 "HgN/A
1:00 PM40 °FChilly.3 mph99%30.17 "HgN/A
12:00 PM38 °FChilly.2 mph99%30.22 "HgN/A
11:00 AM38 °FChilly.3 mph99%30.24 "HgN/A
10:00 AM37 °FChilly.3 mph99%30.26 "HgN/A
9:00 AM36 °FChilly.3 mph100%30.26 "HgN/A
8:00 AM36 °FChilly.2 mph100%30.26 "HgN/A
7:00 AM36 °FChilly.6 mph99%30.25 "HgN/A
6:00 AM36 °FChilly.3 mph99%30.26 "HgN/A
5:00 AM36 °FChilly.2 mph99%30.27 "HgN/A
4:00 AM37 °FChilly.3 mph99%30.28 "HgN/A
3:00 AM37 °FChilly.3 mph99%30.29 "HgN/A
2:00 AM37 °FChilly.3 mph99%30.30 "HgN/A
1:00 AM37 °FChilly.2 mph99%30.32 "HgN/A
12:00 AM36 °FChilly.6 mph100%30.33 "HgN/A
11:00 PM
Fri, Feb 5
35 °FChilly.5 mph100%30.33 "HgN/A
9:00 PM38 °FChilly.2 mph99%30.33 "HgN/A
8:00 PM40 °FChilly.1 mph99%30.33 "HgN/A
7:00 PM41 °FQuite cool.No wind99%30.33 "HgN/A
Weather by CustomWeather, © 2016

See weather overviewHow to use our weather pages